Regional Weather Roundup
Issued by NWS

Home | Current Version | Previous Version | Graphics & Text | Print | Product List | Glossary On
Versions: 1 2 3 4 5 6 7 8 9 10 11 12 13 14 15 16 17 18 19 20 21 22 23 24 25 26 27
000
ASUS45 KSLC 211610
RWRUT

UTAH REGIONAL WEATHER ROUNDUP
NATIONAL WEATHER SERVICE SALT LAKE CITY UT
1000 AM MDT WED JUN 21 2017

UTZ001>011-023>025-211700-

NORTHERN UTAH

CITY           SKY/WX    TMP DP  RH WIND       PRES   REMARKS
BRIGHAM CITY   MOSUNNY   78  45  30 CALM      30.04S
DUGWAY         MOSUNNY   87  39  18 NW6       30.01F
HILL AFB       PTSUNNY   71  49  45 E13       30.06S
LOGAN          SUNNY     74  53  48 N9        30.06R
OGDEN          PTSUNNY   79  48  33 N6        30.04R
SALT LAKE CITY PTSUNNY   83  50  31 SE5       30.01F
TOOELE VALLEY  MOSUNNY   84  46  26 CALM      30.03F
WENDOVER         N/A     83  47  28 CALM      30.03S
HEBER CITY     SUNNY     66  52  59 NW3       30.15F
WEST JORDAN    MOSUNNY   82  57  41 SE8       30.05F

$$

UTZ011>015-024>027-211700-

CENTRAL/NORTHEAST UTAH

CITY           SKY/WX    TMP DP  RH WIND       PRES   REMARKS
PROVO AIRPORT  SUNNY     74  53  48 VRB3      30.06F
MOAB/CANYONLAN SUNNY     89  39  17 VRB3      30.03S
DELTA          SUNNY     81  37  21 CALM      30.06S
PRICE          SUNNY     80  39  23 S5        30.16S
ROOSEVELT      SUNNY     77  43  29 CALM      30.15F
VERNAL         SUNNY     78  47  33 E3        30.13F

$$

UTZ013>016-019>022-027-211700-

SOUTHERN UTAH

CITY           SKY/WX    TMP DP  RH WIND       PRES   REMARKS
BRYCE CANYON   SUNNY     78  37  22 CALM      30.32S
CEDAR CITY     SUNNY     82  42  24 N6        30.11F
MILFORD        SUNNY     81  40  23 S8        30.07S
ST GEORGE      SUNNY     88  35  15 CALM      29.90S
HANKSVILLE     SUNNY     84  36  17 CALM      30.05F
BLANDING       SUNNY     87  33  14 S3        30.22F

$$

REGIONAL REPORTS     COLORADO/ARIZONA

CITY           SKY/WX    TMP DP  RH WIND       PRES   REMARKS
CRAIG, CO      SUNNY     77  45  32 N3        30.21F
GRAND JUNCTION SUNNY     84  41  21 SW5       30.07F
RIFLE, CO      SUNNY     79  42  26 VRB3      30.15F
MONTROSE, CO   SUNNY     82  42  24 CALM      30.15F
CORTEZ, CO     SUNNY     82  41  23 CALM      30.16F
COLORADO CITY    N/A     93  32  11 SE6       30.09S
PAGE, AZ       SUNNY     89  35  14 NW7       30.01F
GRAND CANYON   MOSUNNY   89  27  10 VRB3      30.24S
KINGMAN, AZ    SUNNY    100  30   8 CALM      29.93S HX  94
FLAGSTAFF, AZ  SUNNY     87  26  11 VRB3      30.27S

$$

REGIONAL REPORTS    NEVADA/IDAHO/WYOMING

CITY           SKY/WX    TMP DP  RH WIND       PRES   REMARKS
LAS VEGAS, NV  SUNNY    100  21   6 S10       29.81R HX  93
ELY, NY        SUNNY     76  36  23 CALM      30.17F
ELKO, NV       SUNNY     78  46  32 CALM      30.10S
POCATELLO, ID  SUNNY     75  51  43 SW24      30.08S
BURLEY, ID     SUNNY     74  46  36 W14G22    30.07S
FORT BRIDGER,    N/A     79  41  25 W10       30.26F
EVANSTON, WY   CLOUDY    71  45  39 S7        30.25F
ROCK SPRINGS,  SUNNY     76  38  25 W8        30.21S
KEMMERER, WY     N/A     72  41  33 W8        30.25F

$$




USA.gov is the U.S. government's official web portal to all federal, state and local government web resources and services.